Terug naar catalogus

COSMOS 249 DEB

ActiefLEO
NORAD 3911·DEBRIS·🇷🇺 Russia

Gelanceerd Oct 20, 1968 vanaf Baikonur Cosmodrome

Loading…

Volgende Passages (komende 24 uur)

TLE

VersSource: Space-Track

Epoch: Sep 14, 2026, 07:36 UTC

1 03911U 68091BP  26257.31684673  .00002267  00000-0  58759-3 0  9992
2 03911  62.9176 222.9528 0790061  90.9090 278.2450 13.43370369679297

Volg COSMOS 249 DEB in realtime met AllMySat

Download on the App Store